User: anonymous   Login
Location: Caltech
(34.1382°N, 118.1253°W)
Time: 18:18:48
(UTC-07:00)
Language:

Tiros 1 despin weight - Orbit

View from above orbital plane
View from above orbital plane
View from above satellite
View from above satellite

Ground track
Ground track

The orbit data is extracted from the following two-line orbital elements,

1   115U 60002D   17144.54583078 +.00000077 +00000-0 +36641-4 0  9990
2   115 048.1668 257.5191 0034736 353.7444 006.3031 14.83077520025552
Epoch (UTC): 24 May 2017 13:05:59
Eccentricity: 0.0034736
inclination: 48.1668°
perigee height: 595 km
apogee height: 644 km
right ascension of ascending node: 257.5191°
argument of perigee: 353.7444°
revolutions per day: 14.83077520
mean anomaly at epoch: 6.3031°
orbit number at epoch: 2555

The dashed part of the orbit path shows where the satellite is in the earth's shadow,  

DLR